H1 CPF 2 NER 2023 2 14 9 045 01 glonass134 H2 1407501 9134 40315 2023 2 14 0 0 0 2023 2 17 23 45 0 900 1 1 0 0 0 1 H9 10 0 59989 0.00000 0 8813097.666 -15334023.927 -18335857.476 10 0 59989 900.00000 0 8887656.991 -12962646.546 -20054386.606 10 0 59989 1800.00000 0 9150247.872 -10416259.479 -21382117.672 10 0 59989 2700.00000 0 9615738.222 -7759397.905 -22293406.956 10 0 59989 3600.00000 0 10287260.466 -5059410.058 -22770764.801 10 0 59989 4500.00000 0 11155970.281 -2383864.691 -22805177.898 10 0 59989 5400.00000 0 12201327.736 202036.412 -22396263.719 10 0 59989 6300.00000 0 13391887.674 2637933.561 -21552255.827 10 0 59989 7200.00000 0 14686564.779 4870570.024 -20289822.030 10 0 59989 8100.00000 0 16036319.013 6855746.372 -18633720.525 10 0 59989 9000.00000 0 17386189.838 8559889.381 -16616302.024 10 0 59989 9900.00000 0 18677593.400 9961172.944 -14276868.617 10 0 59989 10800.00000 0 19850786.316 11050147.333 -11660902.540 10 0 59989 11700.00000 0 20847393.163 11829853.579 -8819180.161 10 0 59989 12600.00000 0 21612892.435 12315421.059 -5806788.511 10 0 59989 13500.00000 0 22098957.802 12533167.570 -2682063.134 10 0 59989 14400.00000 0 22265557.688 12519241.543 494532.629 10 0 59989 15300.00000 0 22082726.307 12317864.642 3661565.969 10 0 59989 16200.00000 0 21531932.962 11979249.220 6757809.023 10 0 59989 17100.00000 0 20606992.893 11557278.196 9723407.817 10 0 59989 18000.00000 0 19314481.807 11107044.437 12501024.284 10 0 59989 18900.00000 0 17673636.436 10682352.319 15036930.556 10 0 59989 19800.00000 0 15715744.394 10333285.561 17282035.714 10 0 59989 20700.00000 0 13483047.361 10103942.651 19192826.249 10 0 59989 21600.00000 0 11027201.399 10030434.361 20732203.112 10 0 59989 22500.00000 0 8407356.192 10139227.198 21870199.892 10 0 59989 23400.00000 0 5687930.624 10445902.661 22584568.598 10 0 59989 24300.00000 0 2936174.654 10954385.253 22861221.637 10 0 59989 25200.00000 0 219616.410 11656673.203 22694520.891 10 0 59989 26100.00000 0 -2396501.373 12533085.171 22087407.260 10 0 59989 27000.00000 0 -4851690.521 13553015.013 21051366.684 10 0 59989 27900.00000 0 -7092490.445 14676165.413 19606231.491 10 0 59989 28800.00000 0 -9074450.592 15854210.987 17779818.903 10 0 59989 29700.00000 0 -10763739.475 17032822.959 15607411.671 10 0 59989 30600.00000 0 -12138312.355 18153971.711 13131089.018 10 0 59989 31500.00000 0 -13188587.813 19158410.897 10398919.396 10 0 59989 32400.00000 0 -13917603.879 19988238.239 7464029.705 10 0 59989 33300.00000 0 -14340646.490 20589424.045 4383568.686 10 0 59989 34200.00000 0 -14484365.560 20914198.954 1217584.997 10 0 59989 35100.00000 0 -14385416.241 20923197.898 -1972157.244 10 0 59989 36000.00000 0 -14088683.617 20587267.251 -5123400.844 10 0 59989 36900.00000 0 -13645167.426 19888856.427 -8174630.068 10 0 59989 37800.00000 0 -13109618.294 18822933.045 -11066291.065 10 0 59989 38700.00000 0 -12538027.894 17397381.485 -13741972.304 10 0 59989 39600.00000 0 -11985081.674 15632867.053 -16149519.996 10 0 59989 40500.00000 0 -11501684.202 13562171.235 -18242065.274 10 0 59989 41400.00000 0 -11132663.670 11229026.267 -19978942.126 10 0 59989 42300.00000 0 -10914753.846 8686498.773 -21326477.793 10 0 59989 43200.00000 0 -10874939.271 5994991.204 -22258640.496 10 0 59989 44100.00000 0 -11029233.463 3219945.721 -22757532.662 10 0 59989 45000.00000 0 -11381940.800 429347.287 -22813721.315 10 0 59989 45900.00000 0 -11925431.979 -2308869.491 -22426400.735 10 0 59989 46800.00000 0 -12640440.853 -4929401.905 -21603385.962 10 0 59989 47700.00000 0 -13496868.483 -7372042.379 -20360938.981 10 0 59989 48600.00000 0 -14455058.981 -9583922.341 -18723432.571 10 0 59989 49500.00000 0 -15467492.128 -11521445.444 -16722859.693 10 0 59989 50400.00000 0 -16480820.719 -13151832.153 -14398199.056 10 0 59989 51300.00000 0 -17438166.487 -14454214.194 -11794649.892 10 0 59989 52200.00000 0 -18281578.161 -15420236.210 -8962751.193 10 0 59989 53100.00000 0 -18954548.770 -16054142.329 -5957402.596 10 0 59989 54000.00000 0 -19404487.238 -16372346.644 -2836805.664 10 0 59989 54900.00000 0 -19585041.443 -16402507.718 338654.419 10 0 59989 55800.00000 0 -19458176.252 -16182147.473 3507565.793 10 0 59989 56700.00000 0 -18995920.279 -15756873.345 6608664.013 10 0 59989 57600.00000 0 -18181708.850 -15178278.665 9582001.721 10 0 59989 58500.00000 0 -17011267.161 -14501609.171 12370092.418 10 0 59989 59400.00000 0 -15492996.517 -13783292.986 14919007.529 10 0 59989 60300.00000 0 -13647846.707 -13078436.806 17179406.858 10 0 59989 61200.00000 0 -11508678.482 -12438392.355 19107483.648 10 0 59989 62100.00000 0 -9119140.869 -11908494.269 20665807.051 10 0 59989 63000.00000 0 -6532107.661 -11526063.639 21824046.465 10 0 59989 63900.00000 0 -3807735.592 -11318760.697 22559564.077 10 0 59989 64800.00000 0 -1011222.107 -11303356.037 22857864.159 10 0 59989 65700.00000 0 1789646.728 -11484972.750 22712889.846 10 0 59989 66600.00000 0 4527058.669 -11856832.716 22127160.661 10 0 59989 67500.00000 0 7135743.501 -12400519.550 21111746.651 10 0 59989 68400.00000 0 9555441.539 -13086749.286 19686077.831 10 0 59989 69300.00000 0 11733170.303 -13876618.626 17877590.623 10 0 59989 70200.00000 0 13625194.910 -14723280.183 15721216.078 10 0 59989 71100.00000 0 15198619.407 -15573975.770 13258717.937 10 0 59989 72000.00000 0 16432531.549 -16372342.895 10537891.834 10 0 59989 72900.00000 0 17318652.006 -17060897.287 7611640.173 10 0 59989 73800.00000 0 17861459.732 -17583585.935 4536940.248 10 0 59989 74700.00000 0 18077787.545 -17888301.281 1373725.967 10 0 59989 75600.00000 0 17995904.774 -17929248.232 -1816294.108 10 0 59989 76500.00000 0 17654126.084 -17669061.428 -4970857.895 10 0 59989 77400.00000 0 17099006.342 -17080580.670 -8028384.356 10 0 59989 78300.00000 0 16383199.476 -16148207.067 -10929195.269 10 0 59989 79200.00000 0 15563073.935 -14868780.568 -13616698.246 10 0 59989 80100.00000 0 14696187.948 -13251940.412 -16038505.951 10 0 59989 81000.00000 0 13838733.548 -11319952.488 -18147468.167 10 0 59989 81900.00000 0 13043059.390 -9107010.688 -19902595.553 10 0 59989 82800.00000 0 12355378.414 -6658041.984 -21269856.699 10 0 59989 83700.00000 0 11813757.891 -4027066.082 -22222833.142 10 0 59989 84600.00000 0 11446476.655 -1275179.199 -22743220.374 10 0 59989 85500.00000 0 11270818.037 1531752.912 -22821166.314 10 0 59990 0.00000 0 11292348.009 4325595.615 -22455442.262 10 0 59990 900.00000 0 11504707.199 7038536.886 -21653444.453 10 0 59990 1800.00000 0 11889923.400 9605658.445 -20431028.479 10 0 59990 2700.00000 0 12419229.434 11967385.522 -18812180.785 10 0 59990 3600.00000 0 13054350.090 14071711.258 -16828535.343 10 0 59990 4500.00000 0 13749202.469 15876106.767 -14518745.928 10 0 59990 5400.00000 0 14451937.135 17349039.601 -11927726.910 10 0 59990 6300.00000 0 15107233.692 18471040.090 -9105777.744 10 0 59990 7200.00000 0 15658754.140 19235273.786 -6107608.244 10 0 59990 8100.00000 0 16051651.227 19647598.724 -2991283.325 10 0 59990 9000.00000 0 16235027.029 19726107.355 182892.817 10 0 59990 9900.00000 0 16164239.270 19500174.064 3353532.182 10 0 59990 10800.00000 0 15802959.406 19009049.388 6459336.660 10 0 59990 11700.00000 0 15124896.764 18300060.414 9440268.347 10 0 59990 12600.00000 0 14115116.851 17426492.782 12238695.021 10 0 59990 13500.00000 0 12770898.530 16445242.595 14800489.934 10 0 59990 14400.00000 0 11102093.579 15414335.738 17076065.950 10 0 59990 15300.00000 0 9130972.417 14390417.479 19021325.216 10 0 59990 16200.00000 0 6891560.635 13426316.373 20598507.034 10 0 59990 17100.00000 0 4428491.683 12568783.485 21776918.327 10 0 59990 18000.00000 0 1795420.797 11856500.946 22533532.955 10 0 59990 18900.00000 0 -946936.731 11318442.959 22853448.255 10 0 59990 19800.00000 0 -3733064.325 10972658.193 22730189.489 10 0 59990 20700.00000 0 -6495108.722 10825525.402 22165855.279 10 0 59990 21600.00000 0 -9165450.208 10871514.750 21171099.811 10 0 59990 22500.00000 0 -11679273.378 11093466.558 19764950.340 10 0 59990 23400.00000 0 -13977032.360 11463377.549 17974461.527 10 0 59990 24300.00000 0 -16006708.121 11943663.361 15834211.290 10 0 59990 25200.00000 0 -17725763.328 12488845.650 13385646.004 10 0 59990 26100.00000 0 -19102712.137 13047593.681 10676286.231 10 0 59990 27000.00000 0 -20118238.029 13565034.551 7758807.336 10 0 59990 27900.00000 0 -20765811.532 13985234.033 4690012.398 10 0 59990 28800.00000 0 -21051780.797 14253741.927 1529717.670 10 0 59990 29700.00000 0 -20994930.547 14320092.331 -1660426.843 10 0 59990 30600.00000 0 -20625527.901 14140150.682 -4818157.228 10 0 59990 31500.00000 0 -19983895.907 13678205.579 -7881830.217 10 0 59990 32400.00000 0 -19118576.236 12908714.288 -10791646.242 10 0 59990 33300.00000 0 -18084160.405 11817625.786 -13490834.996 10 0 59990 34200.00000 0 -16938883.267 10403223.576 -15926778.365 10 0 59990 35100.00000 0 -15742082.613 8676451.458 -18052047.294 10 0 59990 36000.00000 0 -14551634.155 6660707.874 -19825331.326 10 0 59990 36900.00000 0 -13421471.760 4391117.470 -21212242.243 10 0 59990 37800.00000 0 -12399298.422 1913310.844 -22185976.339 10 0 59990 38700.00000 0 -11524584.695 -718235.665 -22727823.191 10 0 59990 39600.00000 0 -10826938.292 -3442229.896 -22827512.201 10 0 59990 40500.00000 0 -10324912.189 -6192878.069 -22483391.732 10 0 59990 41400.00000 0 -10025299.514 -8902386.403 -21702439.053 10 0 59990 42300.00000 0 -9922942.604 -11503546.006 -20500102.627 10 0 59990 43200.00000 0 -10001061.845 -13932294.075 -18899981.440 10 0 59990 44100.00000 0 -10232088.109 -16130145.984 -16933348.996 10 0 59990 45000.00000 0 -10578961.652 -18046398.758 -14638532.337 10 0 59990 45900.00000 0 -10996841.185 -19640016.287 -12060158.929 10 0 59990 46800.00000 0 -11435150.030 -20881120.197 -9248286.475 10 0 59990 47700.00000 0 -11839872.653 -21752026.695 -6257432.626 10 0 59990 48600.00000 0 -12156004.816 -22247788.601 -3145523.254 10 0 59990 49500.00000 0 -12330054.603 -22376222.167 27220.871 10 0 59990 50400.00000 0 -12312489.710 -22157419.355 3199438.084 10 0 59990 51300.00000 0 -12060028.864 -21622767.360 6309799.096 10 0 59990 52200.00000 0 -11537681.805 -20813517.125 9298177.964 10 0 59990 53100.00000 0 -10720452.677 -19778960.977 12106799.247 10 0 59990 54000.00000 0 -9594635.520 -18574295.283 14681340.489 10 0 59990 54900.00000 0 -8158647.187 -17258256.771 16971970.001 10 0 59990 55800.00000 0 -6423361.911 -15890630.258 18934301.062 10 0 59990 56700.00000 0 -4411931.920 -14529730.786 20530245.160 10 0 59990 57600.00000 0 -2159099.459 -13229964.123 21728748.536 10 0 59990 58500.00000 0 289973.746 -12039566.613 22506398.219 10 0 59990 59400.00000 0 2881313.763 -10998618.096 22847885.813 10 0 59990 60300.00000 0 5554114.688 -10137410.744 22746319.589 10 0 59990 61200.00000 0 8243012.360 -9475242.307 22203377.840 10 0 59990 62100.00000 0 10880559.639 -9019685.008 21229299.148 10 0 59990 63000.00000 0 13399802.328 -8766361.907 19842707.943 10 0 59990 63900.00000 0 15736849.863 -8699241.555 18070276.742 10 0 59990 64800.00000 0 17833334.280 -8791440.062 15946229.587 10 0 59990 65700.00000 0 19638654.739 -9006498.232 13511694.359 10 0 59990 66600.00000 0 21111913.014 -9300080.950 10813915.002 10 0 59990 67500.00000 0 22223457.718 -9622027.596 7905337.857 10 0 59990 68400.00000 0 22955971.053 -9918666.619 4842589.374 10 0 59990 69300.00000 0 23305051.006 -10135295.456 1685365.335 10 0 59990 70200.00000 0 23279263.387 -10218719.149 -1504745.939 10 0 59990 71100.00000 0 22899660.891 -10119737.974 -4665482.035 10 0 59990 72000.00000 0 22198789.448 -9795476.141 -7735140.874 10 0 59990 72900.00000 0 21219224.500 -9211450.278 -10653804.927 10 0 59990 73800.00000 0 20011700.273 -8343287.599 -13364529.198 10 0 59990 74700.00000 0 18632912.783 -7178018.927 -15814467.811 10 0 59990 75600.00000 0 17143091.306 -5714890.315 -17955915.611 10 0 59990 76500.00000 0 15603442.729 -3965657.963 -19747243.447 10 0 59990 77400.00000 0 14073578.214 -1954353.627 -21153708.376 10 0 59990 78300.00000 0 12609031.734 283469.510 -22148123.178 10 0 59990 79200.00000 0 11258975.378 2701978.389 -22711372.849 10 0 59990 80100.00000 0 10064227.207 5246736.286 -22832769.219 10 0 59990 81000.00000 0 9055634.287 7856742.902 -22510238.305 10 0 59990 81900.00000 0 8252897.001 10466752.625 -21750338.470 10 0 59990 82800.00000 0 7663881.718 13009774.055 -20568110.787 10 0 59990 83700.00000 0 7284448.014 15419646.905 -18986766.124 10 0 59990 84600.00000 0 7098794.950 17633589.727 -17037216.469 10 0 59990 85500.00000 0 7080309.273 19594613.591 -14757460.721 10 0 59991 0.00000 0 7192877.589 21253702.782 -12191837.921 10 0 59991 900.00000 0 7392605.637 22571674.497 -9390161.446 10 0 59991 1800.00000 0 7629870.920 23520640.089 -6406754.598 10 0 59991 2700.00000 0 7851621.892 24085012.091 -3299401.520 10 0 59991 3600.00000 0 8003826.684 24262014.813 -128236.686 10 0 59991 4500.00000 0 8033968.648 24061679.900 3045407.559 10 0 59991 5400.00000 0 7893484.323 23506328.302 6160173.771 10 0 59991 6300.00000 0 7540041.945 22629561.115 9155850.938 10 0 59991 7200.00000 0 6939565.360 21474801.820 11974523.260 10 0 59991 8100.00000 0 6067918.676 20093450.572 14561675.271 10 0 59991 9000.00000 0 4912180.884 18542726.927 16867233.244 10 0 59991 9900.00000 0 3471456.393 16883289.985 18846523.914 10 0 59991 10800.00000 0 1757186.322 15176733.957 20461133.065 10 0 59991 11700.00000 0 -207054.383 13483062.222 21679648.152 10 0 59991 12600.00000 0 -2386267.937 11858243.938 22478271.032 10 0 59991 13500.00000 0 -4735226.028 10351954.066 22841288.952 10 0 59991 14400.00000 0 -7200096.872 9005590.376 22761394.237 10 0 59991 15300.00000 0 -9720442.332 7850650.029 22239845.519 10 0 59991 16200.00000 0 -12231504.803 6907533.767 21286466.001 10 0 59991 17100.00000 0 -14666691.078 6184828.455 19919477.026 10 0 59991 18000.00000 0 -16960151.400 5679099.038 18165168.197 10 0 59991 18900.00000 0 -19049347.182 5375199.891 16057408.390 10 0 59991 19800.00000 0 -20877500.387 5247093.658 13637005.224 10 0 59991 20700.00000 0 -22395821.572 5259144.110 10950923.833 10 0 59991 21600.00000 0 -23565422.158 5367829.054 8051378.995 10 0 59991 22500.00000 0 -24358829.189 5523800.935 4994817.725 10 0 59991 23400.00000 0 -24761037.223 5674207.270 1840812.349 10 0 59991 24300.00000 0 -24770051.612 5765171.320 -1349113.602 10 0 59991 25200.00000 0 -24396899.082 5744325.897 -4512702.383 10 0 59991 26100.00000 0 -23665104.622 5563290.524 -7588196.293 10 0 59991 27000.00000 0 -22609656.802 5179984.280 -10515563.000 10 0 59991 27900.00000 0 -21275505.937 4560673.768 -13237685.911 10 0 59991 28800.00000 0 -19715659.804 3681667.081 -15701494.310 10 0 59991 29700.00000 0 -17988958.911 2530580.258 -17859009.633 10 0 59991 30600.00000 0 -16157626.943 1107121.354 -19668286.394 10 0 59991 31500.00000 0 -14284701.253 -576641.639 -21094228.873 10 0 59991 32400.00000 0 -12431452.830 -2496540.475 -22109267.808 10 0 59991 33300.00000 0 -10654904.879 -4617082.696 -22693884.596 10 0 59991 34200.00000 0 -9005554.231 -6892710.872 -22836973.952 10 0 59991 35100.00000 0 -7525390.343 -9269491.515 -22536039.511 10 0 59991 36000.00000 0 -6246293.374 -11687162.410 -21797220.236 10 0 59991 36900.00000 0 -5188876.290 -14081452.342 -20635148.880 10 0 59991 37800.00000 0 -4361816.803 -16386576.366 -19072646.903 10 0 59991 38700.00000 0 -3761704.223 -18537802.927 -17140263.165 10 0 59991 39600.00000 0 -3373404.681 -20473986.617 -14875666.560 10 0 59991 40500.00000 0 -3170926.640 -22139962.257 -12322905.176 10 0 59991 41400.00000 0 -3118747.992 -23488702.146 -9531546.823 10 0 59991 42300.00000 0 -3173547.149 -24483148.339 -6555717.781 10 0 59991 43200.00000 0 -3286264.117 -25097645.467 -3453058.217 10 0 59991 44100.00000 0 -3404404.199 -25318916.245 -283614.049 10 0 59991 45000.00000 0 -3474487.314 -25146540.550 2891313.949 10 0 59991 45900.00000 0 -3444540.174 -24592919.446 6010342.424 10 0 59991 46800.00000 0 -3266527.031 -23682726.521 9013177.542 10 0 59991 47700.00000 0 -2898617.404 -22451869.806 11841765.383 10 0 59991 48600.00000 0 -2307196.011 -20946007.433 14441399.686 10 0 59991 49500.00000 0 -1468530.672 -19218678.274 16761766.838 10 0 59991 50400.00000 0 -370027.963 -17329124.430 18757909.079 10 0 59991 51300.00000 0 988976.854 -15339894.889 20391088.388 10 0 59991 52200.00000 0 2596930.179 -13314328.621 21629535.125 10 0 59991 53100.00000 0 4430284.890 -11314020.349 22449067.434 10 0 59991 54000.00000 0 6454232.859 -9396373.136 22833569.405 10 0 59991 54900.00000 0 8623917.577 -7612338.591 22775318.351 10 0 59991 55800.00000 0 10886079.387 -6004438.216 22275153.898 10 0 59991 56700.00000 0 13181067.775 -4605148.174 21342484.253 10 0 59991 57600.00000 0 15445139.462 -3435715.184 19995127.782 10 0 59991 58500.00000 0 17612948.496 -2505453.730 18258990.989 10 0 59991 59400.00000 0 19620125.801 -1811554.935 16167587.102 10 0 59991 60300.00000 0 21405840.880 -1339416.161 13761402.653 10 0 59991 61200.00000 0 22915238.230 -1063478.395 11087122.772 10 0 59991 62100.00000 0 24101645.354 -948536.792 8196729.074 10 0 59991 63000.00000 0 24928458.200 -951469.181 5146487.133 10 0 59991 63900.00000 0 25370622.920 -1023309.034 1995843.413 10 0 59991 64800.00000 0 25415649.759 -1111574.032 -1193746.101 10 0 59991 65700.00000 0 25064114.739 -1162749.856 -4360031.348 10 0 59991 66600.00000 0 24329626.838 -1124821.689 -7441202.177 10 0 59991 67500.00000 0 23238261.526 -949743.549 -10377114.663 10 0 59991 68400.00000 0 21827484.711 -595738.157 -13110483.746 10 0 59991 69300.00000 0 20144613.269 -29327.424 -15588016.846 10 0 59991 70200.00000 0 18244878.364 772994.487 -17761464.745 10 0 59991 71100.00000 0 16189174.690 1823517.879 -19588568.126 10 0 59991 72000.00000 0 14041592.003 3122557.462 -21033880.733 10 0 59991 72900.00000 0 11866834.059 4658207.949 -22069453.224 10 0 59991 73800.00000 0 9727634.259 6406625.431 -22675365.057 10 0 59991 74700.00000 0 7682276.667 8332822.132 -22840095.183 10 0 59991 75600.00000 0 5782325.764 10391940.409 -22560725.847 10 0 59991 76500.00000 0 4070658.712 12530951.809 -21842977.220 10 0 59991 77400.00000 0 2579880.516 14690709.370 -20701073.953 10 0 59991 78300.00000 0 1331185.784 16808266.969 -19157447.872 10 0 59991 79200.00000 0 333711.761 18819368.833 -17242284.077 10 0 59991 80100.00000 0 -415593.411 20661005.657 -14992920.400 10 0 59991 81000.00000 0 -931584.751 22273931.477 -12453112.747 10 0 59991 81900.00000 0 -1240035.831 23605037.506 -9672181.056 10 0 59991 82800.00000 0 -1376294.901 24609485.290 -6704052.607 10 0 59991 83700.00000 0 -1383540.030 25252511.820 -3606221.090 10 0 59991 84600.00000 0 -1310707.688 25510832.880 -438641.126 10 0 59991 85500.00000 0 -1210182.454 25373587.549 2737420.994 10 0 59992 0.00000 0 -1135345.038 24842785.710 5860558.748 10 0 59992 900.00000 0 -1138081.370 23933240.386 8870399.085 10 0 59992 1800.00000 0 -1266357.005 22671988.867 11708752.680 10 0 59992 2700.00000 0 -1561958.070 21097225.687 14320725.389 10 0 59992 3600.00000 0 -2058493.321 19256791.852 16655766.490 10 0 59992 4500.00000 0 -2779741.055 17206281.940 18668636.352 10 0 59992 5400.00000 0 -3738410.596 15006846.401 20320275.581 10 0 59992 6300.00000 0 -4935371.304 12722778.759 21578559.682 10 0 59992 7200.00000 0 -6359382.958 10418986.292 22418925.070 10 0 59992 8100.00000 0 -7987341.033 8158447.649 22824854.384 10 0 59992 9000.00000 0 -9785029.299 5999761.646 22788211.285 10 0 59992 9900.00000 0 -11708351.232 3994888.168 22309417.349 10 0 59992 10800.00000 0 -13704991.827 2187174.589 21397466.287 10 0 59992 11700.00000 0 -15716443.233 609749.814 20069773.476 10 0 59992 12600.00000 0 -17680311.887 -715646.679 18351861.766 10 0 59992 13500.00000 0 -19532812.449 -1779351.198 16276887.636 10 0 59992 14400.00000 0 -21211345.057 -2583947.970 13885014.906 10 0 59992 15300.00000 0 -22657047.999 -3143918.939 11222646.598 10 0 59992 16200.00000 0 -23817217.995 -3484785.283 8341528.651 10 0 59992 17100.00000 0 -24647495.016 -3641776.533 5297742.365 10 0 59992 18000.00000 0 -25113717.865 -3658083.710 2150605.263 10 0 59992 18900.00000 0 -25193370.325 -3582771.192 -1038497.450 10 0 59992 19800.00000 0 -24876554.957 -3468437.210 -4207326.742 10 0 59992 20700.00000 0 -24166451.781 -3368724.086 -7294023.384 10 0 59992 21600.00000 0 -23079241.418 -3335786.182 -10238335.232 10 0 59992 22500.00000 0 -21643495.457 -3417825.463 -12982812.055 10 0 59992 23400.00000 0 -19899059.970 -3656801.650 -15473942.558 10 0 59992 24300.00000 0 -17895480.068 -4086416.156 -17663209.781 10 0 59992 25200.00000 0 -15690033.018 -4730456.895 -19508043.145 10 0 59992 26100.00000 0 -13345454.128 -5601575.068 -20972647.984 10 0 59992 27000.00000 0 -10927452.244 -6700546.094 -22028696.483 10 0 59992 27900.00000 0 -8502120.135 -8016045.794 -22655867.198 10 0 59992 28800.00000 0 -6133348.793 -9524950.704 -22842223.772 10 0 59992 29700.00000 0 -3880353.686 -11193149.024 -22584426.956 10 0 59992 30600.00000 0 -1795415.475 -12976827.204 -21887777.527 10 0 59992 31500.00000 0 78072.044 -14824177.243 -20766090.971 10 0 59992 32400.00000 0 1707167.521 -16677452.459 -19241408.066 10 0 59992 33300.00000 0 3070498.615 -18475285.314 -17343548.414 10 0 59992 34200.00000 0 4158885.935 -20155170.298 -15109516.810 10 0 59992 35100.00000 0 4975451.517 -21656008.502 -12582774.821 10 0 59992 36000.00000 0 5535210.336 -22920608.347 -9812392.209 10 0 59992 36900.00000 0 5864164.704 -23898039.036 -6852094.863 10 0 59992 37800.00000 0 5997941.744 -24545739.755 -3759227.555 10 0 59992 38700.00000 0 5980032.768 -24831297.862 -593651.143 10 0 59992 39600.00000 0 5859709.512 -24733823.099 2583405.028 10 0 59992 40500.00000 0 5689705.200 -24244861.552 5710514.247 10 0 59992 41400.00000 0 5523757.818 -23368811.943 8727225.497 10 0 59992 42300.00000 0 5414118.430 -22122827.236 11575216.920 10 0 59992 43200.00000 0 5409128.591 -20536205.480 14199408.676 10 0 59992 44100.00000 0 5550968.058 -18649294.585 16549014.993 10 0 59992 45000.00000 0 5873666.898 -16511955.493 18578516.223 10 0 59992 45900.00000 0 6401465.418 -14181646.074 20248533.240 10 0 59992 46800.00000 0 7147591.139 -11721203.561 21526588.060 10 0 59992 47700.00000 0 8113505.152 -9196415.648 22387736.460 10 0 59992 48600.00000 0 9288651.100 -6673479.159 22815060.411 10 0 59992 49500.00000 0 10650719.514 -4216450.028 22800010.419 10 0 59992 50400.00000 0 12166419.077 -1884789.083 22342590.228 10 0 59992 51300.00000 0 13792725.381 268895.339 21451379.009 10 0 59992 52200.00000 0 15478557.747 2200814.540 20143388.860 10 0 59992 53100.00000 0 17166816.401 3877594.372 18443758.474 10 0 59992 54000.00000 0 18796696.684 5277430.929 16385286.834 10 0 59992 54900.00000 0 20306184.565 6390757.951 14007814.072 10 0 59992 55800.00000 0 21634629.153 7220397.142 11357459.866 10 0 59992 56700.00000 0 22725283.762 7781184.280 8485732.978 10 0 59992 57600.00000 0 23527707.453 8099086.437 5448528.632 10 0 59992 58500.00000 0 23999924.194 8209847.448 2305033.332 10 0 59992 59400.00000 0 24110246.458 8157219.421 -883440.834 10 0 59992 60300.00000 0 23838684.144 7990856.267 -4054668.384 10 0 59992 61200.00000 0 23177877.284 7763960.175 -7146743.671 10 0 59992 62100.00000 0 22133511.572 7530782.941 -10099309.012 10 0 59992 63000.00000 0 20724198.098 7344090.547 -12854751.637 10 0 59992 63900.00000 0 18980822.010 7252700.885 -15359344.049 10 0 59992 64800.00000 0 16945387.800 7299201.269 -17564303.900 10 0 59992 65700.00000 0 14669410.629 7517944.208 -19426751.521 10 0 59992 66600.00000 0 12211922.442 7933407.526 -20910545.831 10 0 59992 67500.00000 0 9637177.868 8558988.785 -21986982.357 10 0 59992 68400.00000 0 7012157.101 9396284.894 -22635340.382 10 0 59992 69300.00000 0 4403971.081 10434886.737 -22843269.647 10 0 59992 70200.00000 0 1877277.604 11652696.507 -22607010.564 10 0 59992 71100.00000 0 -508184.294 13016753.223 -21931445.348 10 0 59992 72000.00000 0 -2699839.952 14484530.518 -20829980.798 10 0 59992 72900.00000 0 -4654213.023 16005651.119 -19324266.712 10 0 59992 73800.00000 0 -6338469.559 17523945.348 -17443756.851 10 0 59992 74700.00000 0 -7731510.760 18979766.901 -15225122.211 10 0 59992 75600.00000 0 -8824571.916 20312468.909 -12711528.858 10 0 59992 76500.00000 0 -9621305.681 21462936.996 -9951794.859 10 0 59992 77400.00000 0 -10137349.122 22376074.047 -6999442.865 10 0 59992 78300.00000 0 -10399395.231 23003133.722 -3911666.591 10 0 59992 79200.00000 0 -10443809.818 23303806.231 -748230.759 10 0 59992 80100.00000 0 -10314853.206 23247970.264 2429674.805 10 0 59992 81000.00000 0 -10062582.161 22817038.837 5560605.655 10 0 59992 81900.00000 0 -9740520.366 22004843.502 8584036.209 10 0 59992 82800.00000 0 -9403195.013 20818020.340 11441514.695 10 0 59992 83700.00000 0 -9103642.409 19275881.428 14077778.502 10 0 59992 84600.00000 0 -8890986.622 17409776.474 16441809.684 10 0 59992 85500.00000 0 -8808192.122 15261969.997 18487811.390 99